Regional Weather Roundup
Issued by NWS

Home | Current Version | Previous Version | Text Only | Print | Product List | Glossary On
Versions: 1 2 3 4 5 6 7 8 9 10 11 12 13 14 15 16 17 18 19 20 21 22 23 24 25 26 27 28 29 30 31 32 33 34 35 36 37 38 39 40 41 42 43 44 45 46 47 48 49 50
000
ASUS43 KTOP 050559
RWRKS

WEATHER ROUNDUP FOR KANSAS
NATIONAL WEATHER SERVICE GOODLAND KS
1200 AM CST MON DEC 05 2016

NOTE:  "FAIR" INDICATES FEW OR NO CLOUDS BELOW 12,000 FEET WITH NO
SIGNIFICANT WEATHER AND/OR OBSTRUCTIONS TO VISIBILITY.

KSZ001>006-013>018-027>032-041>047-050700-
NORTHWEST KANSAS

CITY           SKY/WX    TMP DP  RH WIND       PRES   REMARKS
GOODLAND       CLOUDY    33  17  51 S14       29.74F WCI  23
6HR MIN TEMP:  32; 6HR MAX TEMP:  41;

HAYS           CLEAR     33  25  72 S10       29.87F WCI  25
HILL CITY      CLOUDY    38  23  55 SW8       29.83F
6HR MIN TEMP:  33; 6HR MAX TEMP:  42;

RUSSELL        CLEAR     33  26  75 S15       29.86F WCI  23
6HR MIN TEMP:  31; 6HR MAX TEMP:  39;

$$

KSZ061>065-074>080-084>089-050700-
SOUTHWEST KANSAS

CITY           SKY/WX    TMP DP  RH WIND       PRES   REMARKS
DODGE CITY     CLEAR     35  26  69 S15       29.90F WCI  25
6HR MIN TEMP:  29; 6HR MAX TEMP:  40;

ELKHART          N/A     31  15  52 S14         N/A  WCI  21
GARDEN CITY    CLEAR     32  24  72 S10       29.86F WCI  24
6HR MIN TEMP:  30; 6HR MAX TEMP:  35;

GREAT BEND     CLEAR     34  26  72 S12       29.91F WCI  25
LIBERAL        CLOUDY    30  21  69 S12       29.91F WCI  21
$$

KSZ066>073-081>083-090>101-050700-
SOUTHEAST KANSAS

CITY           SKY/WX    TMP DP  RH WIND       PRES   REMARKS
CHANUTE        FOG       30  28  92 SE3       30.01F VSB 1/4
6HR MIN TEMP:  28; 6HR MAX TEMP:  36;

COFFEYVILLE    CLEAR     33  31  92 S6        30.04R
6HR MIN TEMP:  30; 6HR MAX TEMP:  44;

HUTCHINSON     CLEAR     28  25  88 SE5       29.95F
6HR MIN TEMP:  27; 6HR MAX TEMP:  42;

MEDICINE LODGE   N/A     36  26  67 S5        29.97S
NEWTON         CLEAR     34  32  92 S8        29.96F
PARSONS        CLEAR     29  28  96 CALM      30.03F
6HR MIN TEMP:  28; 6HR MAX TEMP:  38;

WICHITA INTL   CLEAR     32  31  96 S7        29.97F FOG
6HR MIN TEMP:  32; 6HR MAX TEMP:  42;

WICHITA JABRA  CLEAR     36  35  96 SW10      29.97F WCI  28
6HR MIN TEMP:  34; 6HR MAX TEMP:  42;

WINFIELD       CLEAR     33  32  96 SE3       30.01F FOG
6HR MIN TEMP:  30; 6HR MAX TEMP:  42;

$$

KSZ007>012-019>026-033>040-048>060-102>105-050700-
NORTHEAST KANSAS

CITY           SKY/WX    TMP DP  RH WIND       PRES   REMARKS
CONCORDIA      CLEAR     36  30  79 S14       29.89F WCI  27
6HR MIN TEMP:  35; 6HR MAX TEMP:  39;

EMPORIA        CLEAR     33  32  96 S10       29.97F WCI  25
6HR MIN TEMP:  30; 6HR MAX TEMP:  40;

LAWRENCE       FOG       26  26 100 E3        29.99S VSB 1/4
6HR MIN TEMP:  25; 6HR MAX TEMP:  35;

MANHATTAN      CLEAR     29  27  92 CALM      29.95S FOG
6HR MIN TEMP:  25; 6HR MAX TEMP:  36;

OLATHE IND     CLEAR     28  27  96 S8        30.00S FOG
6HR MIN TEMP:  28; 6HR MAX TEMP:  37;

OLATHE EXE     PTCLDY    32  31  96 SW6       30.00R FOG
6HR MIN TEMP:  29; 6HR MAX TEMP:  38;

SALINA         CLEAR     33  29  85 S7        29.93F
6HR MIN TEMP:  31; 6HR MAX TEMP:  40;

TOPEKA BILLARD CLEAR     30  27  88 CALM      29.98S
6HR MIN TEMP:  28; 6HR MAX TEMP:  36;

TOPEKA FORBES  CLEAR     34  31  88 S8        29.97S
6HR MIN TEMP:  32; 6HR MAX TEMP:  35;

$$




USA.gov is the U.S. government's official web portal to all federal, state and local government web resources and services.